星链-34874 (STARLINK-34874)

导读 | 豆包AI

STARLINK-34874是美国太空探索技术公司星链星座的卫星,于2025年8月27日由美国发射升空,属于星链星座组网卫星,承担卫星互联网服务任务。星链星座通过大规模低轨卫星部署,为全球用户提供高速宽带接入,服务覆盖偏远地区、海上与航空场景,该卫星是星座扩容的重要组成部分,进一步完善星座覆盖与服务能力。

基本信息
目录编号:
65335
目录名称:
STARLINK-34874
国际标识:
2025-189N
轨道中心:
EARTH
卫星名称:
星链-34874
卫星全名:
星链-34874 (STARLINK-34874)
卫星状态:
在轨 (已飞行199 天)
发射日期:
2025-08-27 UTC
国别 :
美国 (US)
星等 :
--
轨道信息
数据来源 国际轨道数据 AOE轨道数据
星历时间 2026-03-13T16:30:40+0800
1天前
查看轨道信息
2026-03-14T09:00:00+0800
11小时前
查看轨道信息
半长轴 6853.334km 6853.284km
偏心率 0.0001241 0.0001498
轨道倾角 53.158° 53.156°
近地点辐角 70.020° 60.133°
升交点赤经 190.015° 186.824°
平近点角 290.093° 126.848°
近地点 474.346km 474.12km
远地点 476.048km 476.174km
周期 94.105分钟 94.104分钟
每日圈数 15.302062 15.30223
详细信息
固有亮度:
5
最大亮度:
2.5
卫星平台:
Starlink V1.0
覆盖范围:
全球
运营商:
太空探索技术公司
运营商所在国:
美国
制造商(研发单位):
太空探索技术公司
制造商所在国:
美国
使用方式:
暂无
卫星简介
Starlink 计划是 SpaceX 推出的全球卫星互联网项目,通过发射低轨道卫星,为全球尤其是偏远地区提供高速、低延迟的互联网服务。自 2019 年起,Starlink 已部署数千颗卫星,旨在缩小全球数字鸿沟,推动互联网普及。该项目还为军事、航空等行业提供通信支持,带来广泛经济效益。
2D轨道图
3D轨道图
轨道高度分析图
轨道倾角分析图
轨道综合分析图
查看轨道综合分析图